Regional Weather Roundup
Issued by NWS

Home | Current Version | Previous Version | Graphics & Text | Print | Product List | Glossary On
Versions: 1 2 3 4 5 6 7 8 9 10 11 12 13 14 15 16 17 18 19 20 21 22 23 24 25 26 27 28 29 30 31 32 33 34 35 36 37 38 39 40 41 42 43 44 45 46 47 48 49 50
000
ASUS43 KFSD 290202
RWRSD

WEATHER ROUNDUP FOR SOUTH DAKOTA
NATIONAL WEATHER SERVICE SIOUX FALLS SD
800 PM CST FRI NOV 28 2014

NOTE: "FAIR" INDICATES FEW OR NO CLOUDS BELOW 12,000 FEET WITH NO
SIGNIFICANT WEATHER AND/OR OBSTRUCTIONS TO VISIBILITY.


SDZ001>005-009-010-012>017-290300-
NORTHWEST AND NORTH CENTRAL SOUTH DAKOTA

CITY           SKY/WX    TMP DP  RH WIND       PRES   REMARKS
BUFFALO          N/A     47  30  51 W8        29.41F
FAITH            N/A     35  27  72 S15       29.49F WCI  25
MOBRIDGE       PTCLDY    24  20  84 SE13      29.49F WCI  12
$$

SDZ012>016-024>037-041>051-057-063-072>074-290300-
SOUTHWEST AND SOUTH CENTRAL SOUTH DAKOTA

CITY           SKY/WX    TMP DP  RH WIND       PRES   REMARKS
RAPID CTY ARPT MOCLDY    45  24  43 W6        29.53F
PIERRE         PTCLDY    26  23  88 E6        29.52F WCI  19
CUSTER         MOCLDY    47  22  37 W15G26    29.62F
ELLSWORTH AFB  MOCLDY    48  24  38 W7        29.53F
PHILIP         MOCLDY    37  28  70 CALM      29.51F
PINE RIDGE     PTCLDY    45  24  43 W10       29.61F
WINNER         FAIR      44  29  55 SE10      29.55F
$$

SDZ004>011-016>023-039-040-290300-
NORTHEAST SOUTH DAKOTA

CITY           SKY/WX    TMP DP  RH WIND       PRES   REMARKS
ABERDEEN       CLEAR     16  12  84 E7        29.61F WCI   6
WATERTOWN      CLOUDY    17  15  92 SE7       29.63F WCI   8
SISSETON         N/A     16  14  92 S17       29.66F WCI   0
$$

SDZ017-020-022-023-036>040-048>070-290300-
SOUTHEAST SOUTH DAKOTA

CITY           SKY/WX    TMP DP  RH WIND       PRES   REMARKS
SIOUX FALLS    PTCLDY    25  22  88 E8        29.64F WCI  16
HURON          CLEAR     28  25  88 SE7       29.61F WCI  21
MITCHELL       PTCLDY    28  25  88 E6        29.62F WCI  22
YANKTON        PTCLDY    30  27  86 E7        29.63F WCI  23
$$

ABBREVIATIONS USED IN REMARKS
   TC - TEMPERATURE IN CELSIUS
  WCI - WIND CHILL INDEX
   HX - HEAT INDEX
  VSB - VISIBILITY



USA.gov is the U.S. government's official web portal to all federal, state and local government web resources and services.